(2019 HF4) |
Classification: Apollo [NEO] SPK-ID: 3841669 |
[ hide orbit diagram ]
For accurate long-term ephemerides, please instead use our Horizons system.This orbit viewer was implemented using two-body methods, and hence should not be used for determining accurate long-term trajectories (over several years or decades) or planetary encounter circumstances.
Orbital Elements at Epoch 2459000.5 (2020-May-31.0) TDB
Reference: JPL 1 (heliocentric ecliptic J2000)
Element | Value | Uncertainty (1-sigma) | Units |
e | .3793177450263084 | 0.00041545 | |
a | 1.58895217633554 | 0.0010433 | au |
q | .9862344198532977 | 1.2749e-05 | au |
i | 3.853461496160425 | 0.0033254 | deg |
node | 34.4599712871854 | 8.1796e-05 | deg |
peri | 153.1486217004656 | 0.0013559 | deg |
M | 209.1533859374998 | 0.20822 | deg |
tp | 2459307.047466866882 (2021-Apr-02.54746687) | 0.72505 | TDB |
period | 731.5847873546129 2.00 | 0.7205 0.001973 | d yr |
n | .4920824027817041 | 0.00048463 | deg/d |
Q | 2.191669932817782 | 0.001439 | au |
|
| | Orbit Determination Parameters
Additional Information
|
[ show covariance matrix ]
Physical Parameter Table
Parameter |
Symbol |
Value |
Units |
Sigma |
Reference |
Notes |
absolute magnitude |
H |
27.6 |
|
.19029 |
MPO467582 |
autocmod 2.6q |
|
[ show close-approach data ]
|